Location: B�rgermoos
(47.6500°N, 9.0667°E)
Time: 08:43:09
(UTC+00:00)

A-11 Canister half - Pass Details

Date: 12 August 2021
Orbit: 1526 x 1683 km, 47.3° (Epoch: 20 September)

Event Time Altitude Azimuth Distance (km) Brightness Sun altitude
Rises 14:28:16 0° 292° (WNW) 4,929 12.1 40.5°
Reaches altitude 10° 14:31:49 10° 283° (WNW) 3,926 11.9 40.0°
Maximum altitude 14:40:25 34° 224° (SW) 2,460 11.9 38.7°
Drops below altitude 10° 14:48:49 10° 164° (SSE) 3,816 11.2 37.4°
Sets 14:52:14 0° 156° (SSE) 4,775 11.6 36.8°
